CZ-6A R/B, 63605

Orbit data source: Space-Track

CZ-6A R/B, 63605 is space debris in SSO originally from a launch on Fri, 18 Apr 2025 UTC launched from the Taiyaun Space Center, China (TSC). Debris objects in space refer to the collection of defunct objects orbiting the Earth. Examples of debris include non-operational satellites, rocket bodies, and fragments generated from explosions, collisions, or faulty payload assembly.

Loading next visibility...
Identifier
63605, 2025-078G
Orbit
SSO
Country
Flag of CNCN / PRC
Related business
Manufacturer
SAST
Mission
Spacecraft
Bus & Motor
CZ-6A STAGE 2, YF-115
Mass
~6,000 kg wet, ~6,000 kg dry
Launch date (UTC)
2025-04-18 (1 year ago)
Launch vehicle
Unknown
Launch site
Taiyaun Space Center, China (TSC)
Object type
Payload
Rocket body
Debris
Shape & HBR
Unknown shape, 4.4 m
Radar Cross Section
Large (>1 m²)

Expand to show TLE details & history
Last TLE update: 12 hours ago

TLE from 12 hours ago
0 CZ-6A R/B
1 63605U 25078G   26124.55317390 -.00000252  00000-0 -14488-3 0  9999
2 63605  99.6759 157.0426 0106539 168.9500 191.4035 13.94799526 53034
Epoch: 2026-05-04T13:16Z
TLE epoch observation values (Epoch: 2026-05-04T13:16:34.224Z)
Latitude
-0.00004°
Longitude
95.45929°
Altitude
990.888 km
Speed
7.318 km/s
True Right ascension
10h 28m 10s
True Declination
0° 00' 00"
Sunlit
Object was in daylight at epoch
Visualization orbit readout
Latitude
Unknown
Longitude
Unknown
Altitude
Unknown
Speed
Unknown
Apparent Right ascension
Unknown
Apparent Declination
Unknown
Sunlit
N/A
Visualization observer readout
Local Sidereal Time
08:48:20
Azimuth
Unknown
Elevation
Unknown
Doppler factor
Unknown
Orbital elements
Apogee altitude
986.737 km
Perigee altitude
831.462 km
Semi-major axis
7,287.237 km
Eccentricity
0.01065
Inclination
99.6759°
RAAN
157.0426°
Arg. of periapsis
168.95°
True anomaly
191.16523°
Mean anomaly
191.4035°
Eccentric anomaly
191.28406°
Mean motion
3.48898 °/min
Orbital period
103.18 mins
BSTAR
-0.00014488
Loading maneuver chart data...
Computing Atmospheric mass density...
Loading historical data...
Loading historical data...
Loading historical data...
Loading historical data...
Loading historical data...
Loading historical data...
Loading historical data...

Documentation

Showing up to 5 results
|